Location: Borojevi?i
(45.0486°N, 16.2297°E)
Time: 03:49:36
(UTC+00:00)

Okean 1 - Pass Details

Date: 08 August 2020
Orbit: 539 x 554 km, 82.5° (Epoch: 19 September)

Event Time Altitude Azimuth Distance (km) Brightness Sun altitude
Rises 20:24:13 0° 355° (N) 2,738 7.8 -19.5°
Reaches altitude 10° 20:26:26 10° 360° (N) 1,841 6.7 -19.8°
Maximum altitude 20:30:25 56° 79° (ENE) 665 3.5 -20.2°
Enters shadow 20:30:46 54° 102° (ESE) 681 3.4 -20.3°
